Weather History for KY51 - October, 2011

Change the Weather History Date:

Monday, October 24, 2011

  Actual Average (KLSE) Record (KLSE)
Temperature  
Mean Temperature 48 °F 47 °F  
Max Temperature 59 °F 56 °F 80 °F (1973)
Min Temperature 36 °F 38 °F 17 °F (1887)
Degree Days  
Heating Degree Days 18 18  
Month to date heating degree days 332  
Since 1 July heating degree days 492  
Cooling Degree Days 0 0  
Month to date cooling degree days 7  
Year to date cooling degree days 781  
Moisture  
Dew Point 41 °F    
Average Humidity 82    
Maximum Humidity 100    
Minimum Humidity 49    
Precipitation  
Precipitation 0.02 in 0.06 in 1.26 in (1946)
Month to date precipitation 1.73  
Year to date precipitation 29.25  
Snow  
Snow 0.00 in 0.00 in 0.80 in (2002)
Month to date snowfall 0.1  
Since 1 July snowfall 0.1  
Snow Depth -    
Sea Level Pressure  
Sea Level Pressure 30.01 in    
Wind  
Wind Speed 7 mph (SW)    
Max Wind Speed 10 mph    
Max Gust Speed -    
Visibility 9 miles    
Events      
T = Trace of Precipitation, MM = Missing Value Source: NWS Daily Summary

Daily Weather History Graph

Daily Weather History Graph

Search for Another Location

Airport or City:

Trip Planner

Search our weather history database for the weather conditions in past years. The results will help you decide how hot, cold, wet, or windy it might be!

Date:

Astronomy

Oct. 24, 2011 Rise Set
Actual Time 7:28 AM CDT 6:06 PM CDT
Civil Twilight 6:59 AM CDT 6:35 PM CDT
Nautical Twilight 6:25 AM CDT 7:09 PM CDT
Astronomical Twilight 5:52 AM CDT 7:42 PM CDT
Moon 4:43 AM CDT (10/24) 4:33 PM CDT (10/24)
Length of Visible Light 11h 36m
Length of Day
10h 37m
Waning Crescent, 7% of the Moon is Illuminated
Oct 24
Waning Crescent
Oct 26
New
Nov 2
First Quarter
Nov 10
Full
Nov 18
Last Quarter

Hourly Weather History & Observations

Time (CDT) Temp. Windchill Dew Point Humidity Pressure Visibility Wind Dir Wind Speed Gust Speed Precip Events Conditions
12:35 AM 43.9 °F 39.9 °F 43.5 °F 99% 29.93 in 10.0 mi NW 6.9 mph - N/A   Clear
12:55 AM 43.2 °F 40.5 °F 42.8 °F 99% 29.93 in 10.0 mi NW 4.6 mph - N/A   Clear
1:15 AM 42.4 °F 39.6 °F 42.4 °F 100% 29.93 in 10.0 mi WNW 4.6 mph - N/A   Clear
1:35 AM 41.9 °F 38.2 °F 41.9 °F 100% 29.93 in 10.0 mi WNW 5.8 mph - N/A   Clear
1:55 AM 41.7 °F 38.8 °F 41.7 °F 100% 29.94 in 10.0 mi WNW 4.6 mph - N/A   Clear
2:15 AM 41.9 °F 40.0 °F 41.7 °F 99% 29.94 in 10.0 mi WSW 3.5 mph - N/A   Clear
2:35 AM 40.8 °F 36.9 °F 40.8 °F 100% 29.94 in 10.0 mi WSW 5.8 mph - N/A   Clear
2:55 AM 40.1 °F 36.1 °F 40.1 °F 100% 29.94 in 10.0 mi West 5.8 mph - N/A   Clear
3:15 AM 39.9 °F 35.1 °F 39.9 °F 100% 29.94 in 10.0 mi West 6.9 mph - N/A   Clear
3:35 AM 40.1 °F 36.1 °F 40.1 °F 100% 29.95 in 10.0 mi West 5.8 mph - N/A   Clear
3:55 AM 39.9 °F 35.8 °F 39.9 °F 100% 29.95 in 10.0 mi West 5.8 mph - N/A   Clear
4:15 AM 39.6 °F 34.7 °F 39.6 °F 100% 29.95 in 10.0 mi West 6.9 mph - N/A   Clear
4:35 AM 39.2 °F 35.0 °F 39.2 °F 100% 29.96 in 10.0 mi WSW 5.8 mph - N/A   Clear
4:55 AM 38.8 °F 34.6 °F 38.8 °F 100% 29.97 in 10.0 mi WSW 5.8 mph - N/A   Clear
5:15 AM 39.0 °F 35.7 °F 39.0 °F 100% 29.97 in 10.0 mi WSW 4.6 mph - N/A   Clear
5:35 AM 37.8 °F 32.5 °F 37.8 °F 100% 29.98 in 5.0 mi SW 6.9 mph - N/A   Clear
5:55 AM 37.4 °F 32.8 °F 37.4 °F 100% 29.98 in 7.0 mi SW 5.8 mph - N/A   Clear
6:15 AM 37.6 °F 32.3 °F 37.6 °F 100% 29.99 in 7.0 mi SW 6.9 mph - N/A   Clear
6:35 AM 37.6 °F 32.3 °F 37.6 °F 100% 30.00 in 5.0 mi WSW 6.9 mph - N/A   Clear
6:55 AM 37.4 °F 32.1 °F 37.4 °F 100% 30.00 in 7.0 mi WSW 6.9 mph - N/A   Clear
7:15 AM 36.9 °F 31.4 °F 36.9 °F 100% 30.01 in 7.0 mi WSW 6.9 mph - N/A   Clear
7:35 AM 37.0 °F 30.4 °F 37.0 °F 100% 30.02 in 7.0 mi WSW 9.2 mph - N/A   Clear
7:55 AM 37.6 °F 32.3 °F 37.6 °F 100% 30.03 in 7.0 mi WSW 6.9 mph - N/A   Clear
8:15 AM 38.1 °F 32.3 °F 38.1 °F 100% 30.04 in 5.0 mi WSW 8.1 mph - N/A   Clear
8:35 AM 39.2 °F 34.2 °F 39.2 °F 100% 30.05 in 7.0 mi WSW 6.9 mph - N/A   Clear
8:55 AM 41.2 °F 36.0 °F 41.2 °F 100% 30.06 in 10.0 mi WSW 8.1 mph - N/A   Clear
9:15 AM 42.4 °F 37.5 °F 42.1 °F 99% 30.06 in 10.0 mi WSW 8.1 mph - N/A   Clear
9:35 AM 43.3 °F 38.6 °F 42.4 °F 97% 30.06 in 10.0 mi West 8.1 mph - N/A   Clear
9:55 AM 45.0 °F 40.6 °F 42.6 °F 91% 30.07 in 10.0 mi WSW 8.1 mph - N/A   Clear
10:15 AM 46.4 °F 43.5 °F 42.8 °F 87% 30.07 in 10.0 mi West 5.8 mph - N/A   Clear
10:35 AM 48.7 °F - 43.2 °F 81% 30.07 in 10.0 mi West 9.2 mph - N/A   Clear
10:55 AM 50.4 °F - 42.4 °F 74% 30.07 in 10.0 mi West 9.2 mph - N/A   Clear
11:15 AM 51.4 °F - 42.3 °F 71% 30.07 in 10.0 mi West 8.1 mph - N/A   Clear
11:35 AM 53.1 °F - 42.1 °F 66% 30.07 in 10.0 mi West 9.2 mph - N/A   Clear
11:55 AM 54.5 °F - 41.9 °F 62% 30.07 in 10.0 mi West 9.2 mph - N/A   Clear
12:15 PM 55.2 °F - 41.9 °F 61% 30.06 in 10.0 mi West 8.1 mph - N/A   Clear
12:35 PM 56.1 °F - 41.0 °F 57% 30.06 in 10.0 mi West 6.9 mph - N/A   Clear
12:55 PM 57.2 °F - 41.2 °F 55% 30.05 in 10.0 mi WSW 9.2 mph - N/A   Clear
1:15 PM 57.9 °F - 40.3 °F 52% 30.04 in 10.0 mi West 8.1 mph - N/A   Clear
1:35 PM 58.8 °F - 40.1 °F 50% 30.04 in 10.0 mi West 10.4 mph - N/A   Clear
1:55 PM 59.0 °F - 39.9 °F 49% 30.03 in 10.0 mi SW 6.9 mph - N/A   Clear
3:55 PM - - - N/A% 30.03 in 10.0 mi SW 8.1 mph - N/A   Mostly Cloudy
4:15 PM 59.0 °F - 42.3 °F 54% 30.03 in 10.0 mi SW 8.1 mph - N/A   Mostly Cloudy
4:35 PM 58.6 °F - 42.8 °F 56% 30.03 in 10.0 mi SSW 4.6 mph - N/A   Mostly Cloudy
4:55 PM 58.3 °F - 43.7 °F 58% 30.03 in 10.0 mi SSW 4.6 mph - N/A   Mostly Cloudy
5:15 PM 58.1 °F - 43.5 °F 58% 30.02 in 10.0 mi SSE 3.5 mph - N/A   Mostly Cloudy
5:35 PM 57.9 °F - 43.7 °F 59% 30.02 in 10.0 mi SE 3.5 mph - N/A   Overcast
5:55 PM 56.7 °F - 43.5 °F 61% 30.02 in 10.0 mi ESE 4.6 mph - N/A   Overcast
6:15 PM 55.4 °F - 43.0 °F 63% 30.02 in 10.0 mi ESE 5.8 mph - N/A   Overcast
6:35 PM 54.3 °F - 42.6 °F 65% 30.02 in 10.0 mi ESE 5.8 mph - N/A   Mostly Cloudy
7:15 PM 53.1 °F - 41.7 °F 65% 30.01 in 10.0 mi SE 8.1 mph - N/A   Scattered Clouds
7:35 PM 52.3 °F - 41.5 °F 67% 30.01 in 10.0 mi SE 8.1 mph - N/A   Clear
7:55 PM 52.3 °F - 41.5 °F 67% 30.02 in 10.0 mi SE 6.9 mph - N/A   Clear
8:15 PM 51.8 °F - 41.5 °F 68% 30.00 in 10.0 mi SE 9.2 mph - N/A   Clear
8:35 PM 52.0 °F - 41.9 °F 69% 30.00 in 10.0 mi SE 8.1 mph - N/A   Clear
8:55 PM 51.1 °F - 41.7 °F 70% 30.00 in 10.0 mi ESE 6.9 mph - N/A   Clear
9:15 PM 49.8 °F - 41.4 °F 73% 30.01 in 10.0 mi ESE 6.9 mph - N/A   Clear
9:35 PM 49.6 °F - 41.4 °F 73% 30.02 in 10.0 mi ESE 6.9 mph - N/A   Clear
9:55 PM 49.6 °F - 41.5 °F 74% 30.02 in 10.0 mi SE 9.2 mph - N/A   Clear
10:35 PM 50.0 °F - 42.1 °F 74% 30.02 in 10.0 mi SSE 6.9 mph - N/A   Clear
11:15 PM 49.8 °F - 41.9 °F 74% 30.02 in 10.0 mi SE 4.6 mph - N/A   Clear
11:35 PM 47.7 °F - 41.4 °F 79% 30.02 in 10.0 mi ESE 4.6 mph - N/A   Scattered Clouds
11:55 PM 47.8 °F - 42.3 °F 81% 30.00 in 10.0 mi SE 5.8 mph - N/A   Overcast